Flag for U.S.A. Weather past 2 weeks in Palo Alto, California, U.S.A.

Now
46 °F

Passing clouds.


Feels Like: 45 °F
Forecast: 49 / 59 °F
Wind: 3 mph from East

Location: Moffett Field

Current Time: Feb 28, 2015 at 5:23:55 AM

Latest Report: Feb 28, 2015 at 4:56 AM


Visibility: 10 mi

Pressure: 29.76 "Hg

Humidity: 79%

Dew point: 40 °F

Location of Palo AltoLocation

Historic Weather in Palo Alto — Graph

°F

Palo Alto temperature yesterday

Maximum temperature yesterday: 63 °F (at 12:03 PM)
Minimum temperature yesterday: 52 °F (at 11:56 PM)
Average temperature yesterday: 56 °F

Past Weeks' High & Low Weather Summary

 TemperatureHumidityPressure
High74 °F (Feb 15, 2:56 PM)90% (Feb 14, 6:56 AM)30.38 "Hg (Feb 14, 6:56 AM)
Low38 °F (Feb 24, 6:56 AM)17% (Feb 24, 11:56 AM)29.75 "Hg (Feb 28, 3:56 AM)
Average57 °F66%30.06 "Hg
* Reported Feb 13 3:56 AM — Feb 28 3:56 AM, Palo Alto, Weather by CustomWeather, © 2015

Note: Actual official high and low records may vary slightly from our data, if they occured in-between our weather recording intervals... More about our weather records

Advertising

Palo Alto weather history for previous 24 hours

 ConditionsComfort  
Time TempWeatherWind HumidityBarometerVisibility
3:56 AM
Sat, Feb 28
50 °FPassing clouds.5 mph74%29.75 "Hg10 mi
2:56 AM51 °FClear.No wind71%29.76 "Hg10 mi
1:56 AM51 °FClear.6 mph71%29.78 "Hg10 mi
12:56 AM52 °FClear.6 mph69%29.78 "Hg10 mi
11:56 PM
Fri, Feb 27
52 °FClear.6 mph69%29.78 "Hg10 mi
10:56 PM53 °FPassing clouds.7 mph66%29.79 "Hg10 mi
9:56 PM53 °FPassing clouds.5 mph64%29.80 "Hg10 mi
8:56 PM53 °FPassing clouds.10 mph66%29.80 "Hg10 mi
7:56 PM53 °FClear.7 mph69%29.79 "Hg10 mi
6:56 PM54 °FClear.10 mph64%29.80 "Hg10 mi
5:56 PM55 °FPassing clouds.15 mph64%29.80 "Hg10 mi
4:56 PM57 °FScattered clouds.13 mph60%29.80 "Hg10 mi
3:56 PM59 °FBroken clouds.12 mph56%29.81 "Hg10 mi
2:56 PM60 °FScattered clouds.14 mph53%29.82 "Hg10 mi
1:56 PM61 °FPartly sunny.13 mph56%29.83 "Hg10 mi
12:56 PM62 °FScattered clouds.8 mph56%29.84 "Hg10 mi
12:03 PM63 °FScattered clouds.15 mph56%29.86 "Hg10 mi
11:56 AM62 °FPartly sunny.14 mph58%29.88 "Hg10 mi
10:56 AM62 °FPartly sunny.10 mph58%29.89 "Hg10 mi
10:03 AM61 °FPartly sunny.15 mph63%29.89 "Hg10 mi
8:56 AM58 °FPartly sunny.13 mph72%29.91 "Hg10 mi
7:56 AM57 °FScattered clouds.No wind78%29.91 "Hg10 mi
6:56 AM53 °FSunny.No wind80%29.91 "Hg10 mi
5:56 AM53 °FClear.8 mph80%29.92 "Hg10 mi
Weather by CustomWeather, © 2015

See weather overviewHow to use our weather pages